| time (UTC) | temp F | wind direction | speed MPH | gust MPH | rain 1hr in | rain 24hr in | rain mn in | humidity % | barometer mb |
| 20260503021024 | 40 | 0 | 0.0 | 0.0 | 0.00 | 0.00 | 0.00 | 87 | 1017.7 |
| 20260503020503 | 40 | 0 | 0.0 | 0.0 | 0.00 | 0.00 | 0.00 | 87 | 1017.5 |
| 20260503020003 | 40 | 0 | 0.0 | 0.0 | 0.00 | 0.00 | 0.00 | 87 | 1017.3 |
| 20260503015503 | 40 | 0 | 0.0 | 0.0 | 0.00 | 0.00 | 0.00 | 87 | 1017.6 |
| 20260503015003 | 40 | 0 | 0.0 | 0.0 | 0.00 | 0.00 | 0.00 | 86 | 1017.5 |
| 20260503014503 | 40 | 0 | 0.0 | 0.0 | 0.00 | 0.00 | 0.00 | 86 | 1017.2 |
| 20260503014003 | 40 | 0 | 0.0 | 0.0 | 0.00 | 0.00 | 0.00 | 86 | 1017.5 |
| 20260503013503 | 41 | 0 | 0.0 | 0.0 | 0.00 | 0.00 | 0.00 | 85 | 1017.5 |
| 20260503013003 | 41 | 0 | 0.0 | 0.0 | 0.00 | 0.00 | 0.00 | 84 | 1017.4 |
| 20260503012503 | 41 | 318 | 0.0 | 1.0 | 0.00 | 0.00 | 0.00 | 83 | 1017.5 |
| 20260503012024 | 42 | 317 | 0.0 | 1.0 | 0.00 | 0.00 | 0.00 | 83 | 1017.6 |
| 20260503011503 | 42 | 317 | 0.0 | 1.0 | 0.00 | 0.00 | 0.00 | 83 | 1017.5 |
| 20260503011003 | 43 | 317 | 0.0 | 1.0 | 0.00 | 0.00 | 0.00 | 81 | 1017.5 |
| 20260503010503 | 42 | 318 | 0.0 | 1.0 | 0.00 | 0.00 | 0.00 | 82 | 1017.7 |
| 20260503010003 | 43 | 317 | 0.0 | 1.0 | 0.00 | 0.00 | 0.00 | 82 | 1017.6 |
| 20260503005524 | 44 | 321 | 0.0 | 1.0 | 0.00 | 0.00 | 0.00 | 79 | 1017.7 |
| 20260503005003 | 44 | 327 | 0.0 | 1.0 | 0.00 | 0.00 | 0.00 | 78 | 1017.7 |
| 20260503004524 | 43 | 335 | 0.0 | 1.0 | 0.00 | 0.00 | 0.00 | 79 | 1017.8 |
| 20260503004003 | 44 | 336 | 0.0 | 1.0 | 0.00 | 0.00 | 0.00 | 79 | 1017.7 |
| 20260503003503 | 44 | 337 | 0.0 | 1.0 | 0.00 | 0.00 | 0.00 | 79 | 1017.6 |
| 20260503003003 | 44 | 344 | 0.0 | 1.0 | 0.00 | 0.00 | 0.00 | 78 | 1017.6 |
| 20260503002503 | 44 | 344 | 0.0 | 1.0 | 0.00 | 0.00 | 0.00 | 77 | 1017.8 |
| 20260503002003 | 44 | 337 | 0.0 | 1.0 | 0.00 | 0.00 | 0.00 | 77 | 1017.7 |
| 20260503001503 | 45 | 326 | 0.0 | 1.0 | 0.00 | 0.00 | 0.00 | 76 | 1017.7 |
| 20260503001003 | 45 | 325 | 0.0 | 1.0 | 0.00 | 0.00 | 0.00 | 76 | 1017.8 |
| 20260503000507 | 45 | 325 | 0.0 | 1.0 | 0.00 | 0.00 | 0.00 | 76 | 1017.8 |
| 20260503000007 | 44 | 325 | 0.0 | 1.0 | 0.00 | 0.00 | 0.00 | 78 | 1017.9 |
| 20260502235528 | 45 | 333 | 0.0 | 1.0 | 0.00 | 0.00 | 0.00 | 78 | 1017.8 |
| 20260502235007 | 45 | 331 | 0.0 | 1.0 | 0.00 | 0.00 | 0.00 | 76 | 1017.9 |
| 20260502234507 | 45 | 325 | 0.0 | 1.0 | 0.00 | 0.00 | 0.00 | 76 | 1018.0 |
| 20260502234007 | 46 | 328 | 0.0 | 1.0 | 0.00 | 0.00 | 0.00 | 75 | 1018.0 |
| 20260502233507 | 45 | 325 | 0.0 | 1.0 | 0.00 | 0.00 | 0.00 | 76 | 1018.2 |
| 20260502233028 | 45 | 324 | 0.0 | 1.0 | 0.00 | 0.00 | 0.00 | 76 | 1018.0 |
| 20260502232507 | 44 | 0 | 0.0 | 0.0 | 0.00 | 0.00 | 0.00 | 79 | 1018.2 |
| 20260502232007 | 44 | 0 | 0.0 | 0.0 | 0.00 | 0.00 | 0.00 | 78 | 1018.1 |
| 20260502231528 | 45 | 0 | 0.0 | 0.0 | 0.00 | 0.00 | 0.00 | 77 | 1018.1 |
| 20260502231007 | 46 | 315 | 0.0 | 1.0 | 0.00 | 0.00 | 0.00 | 75 | 1018.1 |
| 20260502230507 | 46 | 296 | 0.0 | 1.0 | 0.00 | 0.00 | 0.00 | 74 | 1018.0 |
| 20260502230007 | 46 | 292 | 0.0 | 1.0 | 0.00 | 0.00 | 0.00 | 74 | 1018.1 |
| 20260502225507 | 44 | 288 | 0.0 | 1.0 | 0.00 | 0.00 | 0.00 | 78 | 1018.2 |
| 20260502225007 | 45 | 280 | 0.0 | 1.0 | 0.00 | 0.00 | 0.00 | 78 | 1018.2 |
| 20260502224507 | 46 | 280 | 0.0 | 1.0 | 0.00 | 0.00 | 0.00 | 76 | 1018.0 |
| 20260502224028 | 46 | 0 | 0.0 | 0.0 | 0.00 | 0.00 | 0.00 | 76 | 1018.1 |
| 20260502223507 | 46 | 280 | 0.0 | 1.0 | 0.00 | 0.00 | 0.00 | 75 | 1018.5 |
| 20260502223028 | 46 | 280 | 0.0 | 1.0 | 0.00 | 0.00 | 0.00 | 74 | 1018.2 |
| 20260502222507 | 46 | 280 | 0.0 | 1.0 | 0.00 | 0.00 | 0.00 | 76 | 1018.4 |
| 20260502222028 | 46 | 280 | 0.0 | 1.0 | 0.00 | 0.00 | 0.00 | 77 | 1018.3 |
| 20260502221506 | 46 | 0 | 0.0 | 0.0 | 0.00 | 0.00 | 0.00 | 77 | 1018.3 |
| 20260502221007 | 46 | 0 | 0.0 | 0.0 | 0.00 | 0.00 | 0.00 | 78 | 1018.4 |
| 20260502220007 | 47 | 0 | 0.0 | 0.0 | 0.00 | 0.00 | 0.00 | 76 | 1018.3 |
| 20260502215507 | 47 | 279 | 0.0 | 1.0 | 0.00 | 0.00 | 0.00 | 74 | 1018.6 |
| 20260502215006 | 48 | 279 | 0.0 | 1.0 | 0.00 | 0.00 | 0.00 | 73 | 1018.5 |
| 20260502214506 | 48 | 279 | 0.0 | 1.0 | 0.00 | 0.00 | 0.00 | 71 | 1018.4 |
| 20260502214006 | 48 | 279 | 0.0 | 1.0 | 0.00 | 0.00 | 0.00 | 72 | 1018.3 |
| 20260502213507 | 48 | 277 | 0.0 | 1.0 | 0.00 | 0.00 | 0.00 | 73 | 1018.8 |
| 20260502213028 | 48 | 278 | 0.0 | 1.0 | 0.00 | 0.00 | 0.00 | 72 | 1018.4 |
| 20260502212506 | 48 | 279 | 0.0 | 1.0 | 0.00 | 0.00 | 0.00 | 72 | 1018.4 |
| 20260502212006 | 49 | 280 | 0.0 | 1.0 | 0.00 | 0.00 | 0.00 | 71 | 1018.5 |
| 20260502211506 | 49 | 280 | 0.0 | 1.0 | 0.00 | 0.00 | 0.00 | 71 | 1018.8 |
| 20260502211006 | 49 | 280 | 0.0 | 1.0 | 0.00 | 0.00 | 0.00 | 72 | 1018.5 |
| 20260502210506 | 49 | 0 | 0.0 | 0.0 | 0.00 | 0.00 | 0.00 | 73 | 1018.4 |
| 20260502210006 | 49 | 280 | 0.0 | 1.0 | 0.00 | 0.00 | 0.00 | 72 | 1018.8 |
| 20260502205506 | 50 | 280 | 0.0 | 1.0 | 0.00 | 0.00 | 0.00 | 70 | 1018.8 |
| 20260502205006 | 50 | 280 | 0.0 | 1.0 | 0.00 | 0.00 | 0.00 | 69 | 1018.9 |
| 20260502204527 | 50 | 280 | 0.0 | 1.0 | 0.00 | 0.00 | 0.00 | 69 | 1018.8 |
| 20260502204006 | 50 | 281 | 0.0 | 1.0 | 0.00 | 0.00 | 0.00 | 69 | 1018.5 |
| 20260502203527 | 51 | 281 | 0.0 | 1.0 | 0.00 | 0.00 | 0.00 | 67 | 1018.9 |
| 20260502203006 | 51 | 277 | 0.0 | 2.0 | 0.00 | 0.00 | 0.00 | 66 | 1019.0 |
| 20260502202506 | 51 | 275 | 0.0 | 2.0 | 0.00 | 0.00 | 0.00 | 66 | 1019.0 |
| 20260502202006 | 51 | 263 | 0.0 | 1.0 | 0.00 | 0.00 | 0.00 | 67 | 1018.9 |
| 20260502201506 | 51 | 0 | 0.0 | 0.0 | 0.00 | 0.00 | 0.00 | 66 | 1018.9 |
| 20260502201006 | 51 | 0 | 0.0 | 0.0 | 0.00 | 0.00 | 0.00 | 66 | 1019.0 |
| 20260502200506 | 52 | 263 | 0.0 | 1.0 | 0.00 | 0.00 | 0.00 | 66 | 1018.9 |
| 20260502200006 | 52 | 263 | 0.0 | 1.0 | 0.00 | 0.00 | 0.00 | 64 | 1019.0 |
| 20260502195506 | 52 | 263 | 0.0 | 1.0 | 0.00 | 0.00 | 0.00 | 63 | 1019.0 |
| 20260502195006 | 53 | 263 | 0.0 | 1.0 | 0.00 | 0.00 | 0.00 | 63 | 1018.9 |
| 20260502194506 | 53 | 263 | 0.0 | 1.0 | 0.00 | 0.00 | 0.00 | 62 | 1018.8 |
| 20260502194006 | 53 | 262 | 0.0 | 1.0 | 0.00 | 0.00 | 0.00 | 62 | 1018.6 |
| 20260502193506 | 53 | 262 | 0.0 | 1.0 | 0.00 | 0.00 | 0.00 | 62 | 1018.8 |
| 20260502193006 | 53 | 262 | 0.0 | 1.0 | 0.00 | 0.00 | 0.00 | 61 | 1019.0 |
| 20260502192506 | 54 | 0 | 0.0 | 0.0 | 0.00 | 0.00 | 0.00 | 61 | 1018.8 |
| 20260502192006 | 54 | 0 | 0.0 | 0.0 | 0.00 | 0.00 | 0.00 | 61 | 1019.0 |
| 20260502191506 | 55 | 0 | 0.0 | 0.0 | 0.00 | 0.00 | 0.00 | 60 | 1018.9 |
| 20260502191006 | 55 | 0 | 0.0 | 0.0 | 0.00 | 0.00 | 0.00 | 58 | 1018.8 |
| 20260502190506 | 56 | 262 | 0.0 | 1.0 | 0.00 | 0.00 | 0.00 | 57 | 1019.0 |
| 20260502190006 | 56 | 262 | 0.0 | 1.0 | 0.00 | 0.00 | 0.00 | 58 | 1018.8 |
| 20260502185506 | 57 | 262 | 0.0 | 1.0 | 0.00 | 0.00 | 0.00 | 56 | 1018.5 |
| 20260502185006 | 57 | 262 | 0.0 | 1.0 | 0.00 | 0.00 | 0.00 | 55 | 1018.5 |
| 20260502184506 | 57 | 259 | 0.0 | 1.0 | 0.00 | 0.00 | 0.00 | 55 | 1018.8 |
| 20260502184006 | 58 | 259 | 0.0 | 1.0 | 0.00 | 0.00 | 0.00 | 55 | 1018.4 |
| 20260502183506 | 58 | 258 | 0.0 | 1.0 | 0.00 | 0.00 | 0.00 | 54 | 1018.4 |
| 20260502183006 | 58 | 258 | 0.0 | 1.0 | 0.00 | 0.00 | 0.00 | 53 | 1018.6 |
| 20260502182006 | 60 | 0 | 0.0 | 0.0 | 0.00 | 0.00 | 0.00 | 52 | 1018.4 |
| 20260502181506 | 60 | 0 | 0.0 | 0.0 | 0.00 | 0.00 | 0.00 | 52 | 1018.3 |
| 20260502181006 | 61 | 0 | 0.0 | 0.0 | 0.00 | 0.00 | 0.00 | 51 | 1018.4 |
| 20260502180506 | 62 | 0 | 0.0 | 0.0 | 0.00 | 0.00 | 0.00 | 50 | 1018.3 |
| 20260502170506 | 68 | 208 | 1.0 | 2.0 | 0.00 | 0.00 | 0.00 | 37 | 1018.0 |
| 20260502164006 | 72 | 88 | 1.0 | 3.0 | 0.00 | 0.00 | 0.00 | 28 | 1018.4 |
| 20260502163506 | 72 | 82 | 2.0 | 4.0 | 0.00 | 0.00 | 0.00 | 29 | 1018.3 |
| 20260502163006 | 72 | 58 | 2.0 | 6.0 | 0.00 | 0.00 | 0.00 | 31 | 1018.4 |
| 20260502162506 | 72 | 43 | 1.0 | 6.0 | 0.00 | 0.00 | 0.00 | 30 | 1018.5 |
| 20260502162006 | 73 | 53 | 1.0 | 3.0 | 0.00 | 0.00 | 0.00 | 28 | 1018.5 |
| 20260502161527 | 74 | 74 | 1.0 | 3.0 | 0.00 | 0.00 | 0.00 | 28 | 1018.5 |
| 20260502161027 | 74 | 202 | 0.0 | 2.0 | 0.00 | 0.00 | 0.00 | 27 | 1018.6 |
| 20260502160506 | 76 | 220 | 0.0 | 2.0 | 0.00 | 0.00 | 0.00 | 27 | 1018.6 |
| 20260502152026 | 76 | 352 | 1.0 | 2.0 | 0.00 | 0.00 | 0.00 | 25 | 1019.0 |
| 20260502151506 | 76 | 29 | 0.0 | 2.0 | 0.00 | 0.00 | 0.00 | 25 | 1019.0 |
| 20260502151005 | 76 | 103 | 1.0 | 9.0 | 0.00 | 0.00 | 0.00 | 26 | 1019.2 |
| 20260502150506 | 74 | 80 | 3.0 | 9.0 | 0.00 | 0.00 | 0.00 | 28 | 1019.0 |
| 20260502130505 | 74 | 62 | 2.0 | 6.0 | 0.00 | 0.00 | 0.00 | 27 | 1020.4 |
| 20260502123505 | 76 | 349 | 1.0 | 4.0 | 0.00 | 0.00 | 0.00 | 26 | 1020.5 |
| 20260502123005 | 76 | 18 | 2.0 | 6.0 | 0.00 | 0.00 | 0.00 | 27 | 1020.8 |
| 20260502122505 | 74 | 60 | 2.0 | 6.0 | 0.00 | 0.00 | 0.00 | 27 | 1020.7 |
| 20260502122005 | 76 | 58 | 1.0 | 6.0 | 0.00 | 0.00 | 0.00 | 26 | 1021.0 |
| 20260502121526 | 74 | 64 | 2.0 | 6.0 | 0.00 | 0.00 | 0.00 | 26 | 1020.9 |
| 20260502121005 | 75 | 93 | 2.0 | 8.0 | 0.00 | 0.00 | 0.00 | 25 | 1021.0 |
| 20260502120505 | 73 | 79 | 3.0 | 9.0 | 0.00 | 0.00 | 0.00 | 26 | 1021.1 |
| 20260502115505 | 74 | 76 | 2.0 | 6.0 | 0.00 | 0.00 | 0.00 | 25 | 1021.2 |
| 20260502115005 | 74 | 57 | 2.0 | 6.0 | 0.00 | 0.00 | 0.00 | 28 | 1021.3 |
| 20260502114005 | 73 | 61 | 2.0 | 8.0 | 0.00 | 0.00 | 0.00 | 29 | 1021.6 |
| 20260502113505 | 73 | 95 | 3.0 | 10.0 | 0.00 | 0.00 | 0.00 | 31 | 1021.4 |
| 20260502113005 | 71 | 98 | 3.0 | 10.0 | 0.00 | 0.00 | 0.00 | 29 | 1021.4 |
| 20260502112526 | 74 | 88 | 2.0 | 8.0 | 0.00 | 0.00 | 0.00 | 28 | 1021.6 |
| 20260502112026 | 72 | 266 | 2.0 | 8.0 | 0.00 | 0.00 | 0.00 | 30 | 1021.6 |
| 20260502111505 | 73 | 262 | 2.0 | 8.0 | 0.00 | 0.00 | 0.00 | 30 | 1021.8 |
| 20260502111005 | 74 | 18 | 2.0 | 7.0 | 0.00 | 0.00 | 0.00 | 28 | 1021.5 |
| 20260502110505 | 73 | 49 | 2.0 | 7.0 | 0.00 | 0.00 | 0.00 | 30 | 1021.8 |
| 20260502110005 | 74 | 57 | 2.0 | 7.0 | 0.00 | 0.00 | 0.00 | 31 | 1021.8 |
| 20260502105505 | 73 | 54 | 2.0 | 6.0 | 0.00 | 0.00 | 0.00 | 30 | 1022.0 |
| 20260502105005 | 73 | 59 | 1.0 | 6.0 | 0.00 | 0.00 | 0.00 | 29 | 1022.3 |
| 20260502104505 | 74 | 68 | 1.0 | 6.0 | 0.00 | 0.00 | 0.00 | 30 | 1022.4 |
| 20260502104005 | 72 | 69 | 2.0 | 6.0 | 0.00 | 0.00 | 0.00 | 32 | 1022.3 |
| 20260502103505 | 73 | 232 | 2.0 | 7.0 | 0.00 | 0.00 | 0.00 | 32 | 1022.4 |
| 20260502103026 | 70 | 253 | 2.0 | 7.0 | 0.00 | 0.00 | 0.00 | 31 | 1022.6 |
| 20260502102505 | 72 | 20 | 1.0 | 6.0 | 0.00 | 0.00 | 0.00 | 31 | 1022.5 |
| 20260502101505 | 71 | 53 | 2.0 | 7.0 | 0.00 | 0.00 | 0.00 | 32 | 1022.4 |
| 20260502101026 | 72 | 40 | 2.0 | 7.0 | 0.00 | 0.00 | 0.00 | 30 | 1022.6 |
| 20260502100505 | 72 | 177 | 2.0 | 7.0 | 0.00 | 0.00 | 0.00 | 33 | 1022.6 |
| 20260502091505 | 72 | 140 | 1.0 | 4.0 | 0.00 | 0.00 | 0.00 | 35 | 1023.1 |
| 20260502091004 | 72 | 97 | 1.0 | 4.0 | 0.00 | 0.00 | 0.00 | 34 | 1023.2 |
| 20260502090505 | 70 | 82 | 1.0 | 4.0 | 0.00 | 0.00 | 0.00 | 35 | 1023.2 |
| 20260502071504 | 65 | 84 | 1.0 | 2.0 | 0.00 | 0.00 | 0.00 | 53 | 1023.9 |
| 20260502071004 | 65 | 70 | 1.0 | 2.0 | 0.00 | 0.00 | 0.00 | 54 | 1023.8 |
| 20260502070504 | 64 | 70 | 1.0 | 2.0 | 0.00 | 0.00 | 0.00 | 55 | 1023.7 |
| 20260502070004 | 63 | 70 | 1.0 | 2.0 | 0.00 | 0.00 | 0.00 | 56 | 1024.0 |
| 20260502065504 | 61 | 74 | 1.0 | 2.0 | 0.00 | 0.00 | 0.00 | 57 | 1023.9 |
| 20260502065004 | 60 | 77 | 1.0 | 2.0 | 0.00 | 0.00 | 0.00 | 58 | 1024.1 |
| 20260502064504 | 60 | 74 | 1.0 | 2.0 | 0.00 | 0.00 | 0.00 | 59 | 1023.9 |
| 20260502064004 | 59 | 77 | 1.0 | 2.0 | 0.00 | 0.00 | 0.00 | 60 | 1024.0 |
| 20260502063504 | 58 | 68 | 1.0 | 2.0 | 0.00 | 0.00 | 0.00 | 60 | 1023.9 |
| 20260502063004 | 58 | 48 | 0.0 | 1.0 | 0.00 | 0.00 | 0.00 | 59 | 1023.9 |
| 20260502062525 | 57 | 43 | 0.0 | 1.0 | 0.00 | 0.00 | 0.00 | 61 | 1024.1 |
| 20260502062004 | 56 | 50 | 0.0 | 1.0 | 0.00 | 0.00 | 0.00 | 63 | 1024.0 |
| 20260502061504 | 55 | 67 | 0.0 | 2.0 | 0.00 | 0.00 | 0.00 | 64 | 1024.1 |
| 20260502061004 | 54 | 70 | 1.0 | 2.0 | 0.00 | 0.00 | 0.00 | 67 | 1023.9 |
| 20260502060525 | 53 | 72 | 1.0 | 2.0 | 0.00 | 0.00 | 0.00 | 69 | 1023.9 |
| 20260502060004 | 53 | 69 | 1.0 | 2.0 | 0.00 | 0.00 | 0.00 | 71 | 1024.1 |
| 20260502055525 | 53 | 60 | 0.0 | 2.0 | 0.00 | 0.00 | 0.00 | 70 | 1024.0 |
| 20260502055004 | 52 | 53 | 0.0 | 1.0 | 0.00 | 0.00 | 0.00 | 71 | 1024.2 |
| 20260502054504 | 52 | 52 | 0.0 | 1.0 | 0.00 | 0.00 | 0.00 | 71 | 1024.3 |
| 20260502054025 | 50 | 42 | 0.0 | 1.0 | 0.00 | 0.00 | 0.00 | 75 | 1024.0 |
| 20260502053504 | 50 | 30 | 0.0 | 1.0 | 0.00 | 0.00 | 0.00 | 74 | 1024.0 |
| 20260502053004 | 49 | 25 | 0.0 | 1.0 | 0.00 | 0.00 | 0.00 | 76 | 1024.0 |
| 20260502052504 | 48 | 20 | 0.0 | 1.0 | 0.00 | 0.00 | 0.00 | 78 | 1024.0 |
| 20260502052004 | 48 | 7 | 0.0 | 1.0 | 0.00 | 0.00 | 0.00 | 76 | 1024.3 |
| 20260502051504 | 47 | 349 | 0.0 | 1.0 | 0.00 | 0.00 | 0.00 | 78 | 1024.2 |
| 20260502051004 | 46 | 336 | 0.0 | 1.0 | 0.00 | 0.00 | 0.00 | 80 | 1024.2 |
| 20260502050504 | 46 | 325 | 0.0 | 1.0 | 0.00 | 0.00 | 0.00 | 80 | 1024.0 |
| 20260502050025 | 45 | 319 | 0.0 | 1.0 | 0.00 | 0.00 | 0.00 | 81 | 1023.9 |
| 20260502045525 | 44 | 318 | 0.0 | 1.0 | 0.00 | 0.00 | 0.00 | 82 | 1023.9 |
| 20260502045025 | 44 | 318 | 0.0 | 1.0 | 0.00 | 0.00 | 0.00 | 83 | 1024.1 |
| 20260502044504 | 44 | 0 | 0.0 | 0.0 | 0.00 | 0.00 | 0.00 | 85 | 1024.0 |
| 20260502044004 | 42 | 316 | 0.0 | 1.0 | 0.00 | 0.00 | 0.00 | 87 | 1023.8 |
| 20260502043504 | 42 | 316 | 0.0 | 1.0 | 0.00 | 0.00 | 0.00 | 87 | 1024.1 |
| 20260502043004 | 40 | 316 | 0.0 | 1.0 | 0.00 | 0.00 | 0.00 | 91 | 1024.0 |
| 20260502042504 | 38 | 0 | 0.0 | 0.0 | 0.00 | 0.00 | 0.00 | 94 | 1023.8 |
| 20260502042004 | 37 | 0 | 0.0 | 0.0 | 0.00 | 0.00 | 0.00 | 96 | 1023.9 |
| 20260502041504 | 37 | 313 | 0.0 | 1.0 | 0.00 | 0.00 | 0.00 | 95 | 1024.0 |
| 20260502041004 | 37 | 313 | 0.0 | 1.0 | 0.00 | 0.00 | 0.00 | 96 | 1023.9 |
| 20260502040525 | 36 | 0 | 0.0 | 0.0 | 0.00 | 0.00 | 0.00 | 97 | 1023.7 |
| 20260502040004 | 36 | 0 | 0.0 | 0.0 | 0.00 | 0.00 | 0.00 | 96 | 1023.8 |
| 20260502035504 | 36 | 0 | 0.0 | 0.0 | 0.00 | 0.00 | 0.00 | 96 | 1023.9 |
| 20260502035025 | 36 | 0 | 0.0 | 0.0 | 0.00 | 0.00 | 0.00 | 95 | 1023.9 |
| 20260502034504 | 37 | 0 | 0.0 | 0.0 | 0.00 | 0.00 | 0.00 | 95 | 1024.0 |
| 20260502034003 | 37 | 0 | 0.0 | 0.0 | 0.00 | 0.00 | 0.00 | 94 | 1023.8 |
| 20260502033504 | 37 | 0 | 0.0 | 0.0 | 0.00 | 0.00 | 0.00 | 94 | 1023.7 |
| 20260502033004 | 37 | 0 | 0.0 | 0.0 | 0.00 | 0.00 | 0.00 | 94 | 1023.8 |
| 20260502032525 | 37 | 0 | 0.0 | 0.0 | 0.00 | 0.00 | 0.00 | 94 | 1023.8 |
| 20260502032004 | 38 | 0 | 0.0 | 0.0 | 0.00 | 0.00 | 0.00 | 93 | 1023.9 |
| 20260502031503 | 38 | 314 | 0.0 | 1.0 | 0.00 | 0.00 | 0.00 | 93 | 1023.9 |
| 20260502031025 | 38 | 314 | 0.0 | 1.0 | 0.00 | 0.00 | 0.00 | 93 | 1023.8 |
| 20260502030503 | 38 | 325 | 0.0 | 1.0 | 0.00 | 0.00 | 0.00 | 94 | 1023.8 |
| 20260502030004 | 38 | 0 | 0.0 | 0.0 | 0.00 | 0.00 | 0.00 | 93 | 1024.0 |
| 20260502025504 | 38 | 0 | 0.0 | 0.0 | 0.00 | 0.00 | 0.00 | 93 | 1024.1 |
| 20260502025003 | 38 | 327 | 0.0 | 1.0 | 0.00 | 0.00 | 0.00 | 93 | 1023.9 |
| 20260502024524 | 38 | 327 | 0.0 | 1.0 | 0.00 | 0.00 | 0.00 | 94 | 1024.0 |
| 20260502024003 | 37 | 327 | 0.0 | 1.0 | 0.00 | 0.00 | 0.00 | 94 | 1023.9 |
| 20260502023503 | 37 | 0 | 0.0 | 0.0 | 0.00 | 0.00 | 0.00 | 93 | 1023.9 |
| 20260502023003 | 38 | 313 | 0.0 | 1.0 | 0.00 | 0.00 | 0.00 | 92 | 1024.0 |
| 20260502022503 | 38 | 320 | 0.0 | 1.0 | 0.00 | 0.00 | 0.00 | 92 | 1024.1 |
| 20260502022004 | 39 | 320 | 0.0 | 1.0 | 0.00 | 0.00 | 0.00 | 92 | 1024.0 |
| 20260502021503 | 38 | 0 | 0.0 | 0.0 | 0.00 | 0.00 | 0.00 | 94 | 1023.9 |